SL-8 R/B, 3048

Orbit data source: Space-Track

SL-8 R/B, 3048 is space debris in LEO originally from a launch on Thu, 23 Nov 1967 UTC launched from the Plesetsk Missile And Space Complex (PKMTR). Debris objects in space refer to the collection of defunct objects orbiting the Earth. Examples of debris include non-operational satellites, rocket bodies, and fragments generated from explosions, collisions, or faulty payload assembly.

Loading next visibility...
SL-8 R/B details
Identifier
3048, 1967-116B
Orbit
LEO
Last TLE update7 hours ago
Origin
Flag of CISRVSN (CIS)
ManufacturerYuzhnoe
MissionSpacecraft
Bus & MotorS3, Unknown motor
Mass1,434 kg wet, 1,434 kg dry
Launch date (UTC)
1967-11-23 (57 years ago)
Launch vehicleUnknown
Launch site
Plesetsk Missile And Space Complex (PKMTR)
Object type
Payload
Rocket body
Debris
Shape & HBRCyl, 4.2 m
Radar Cross Section10.179 m², Large (>1 m²)

Expand to show TLE details & history

TLE from 7 hours ago
0 SL-8 R/B
1 03048U 67116B   24356.97042799  .00001357  00000-0  27408-3 0  9993
2 03048  74.0046 170.7910 0005727  56.9941 104.4795 14.62407732 26743
Epoch: 2024-12-21T23:17Z
Definitive object data (Epoch: 2024-12-21T23:17:24.978Z)
Latitude17.72072°
Longitude-94.80423°
Altitude688.483 km
Speed7.513 km/s
True Right ascension23h 02m 15s
True Declination17° 37' 13"
Sunlit
Object was in daylight at TLE epoch
Visualization TLE readout
Latitude-40.84648°
Longitude-75.85303°
Altitude704.641 km
Speed7.5 km/s
Apparent Right ascension20h 59m 20s
Apparent Declination-54° 36' 41"
Sunlit
Object is in daylight
Visualization observer readout
Local Sidereal Time05:12:52
Azimuth228.97° WSW
Elevation-50.132°
Doppler factor1
Orbital elements
Apogee altitude687.052 km
Perigee altitude678.964 km
Semi-major axis7,061.145 km
Eccentricity0.0005727
Inclination74.0046°
RAAN170.791°
Arg. of periapsis56.9941°
True anomaly104.54303°
Mean anomaly104.4795°
Eccentric anomaly104.51127°
Mean motion3.65789 °/min
BSTAR0.00027408
Orbital period98.42 mins
Loading maneuver chart data...
Loading historical data...
Loading historical data...
Loading historical data...
Loading historical data...
Loading historical data...
Loading historical data...
Loading historical data...

SL-8 R/B Visibility forecast

Observer location: undefined°, undefined

Span
Click to sort rows by Start time (UTC) header in descending order
Start Az.
Max El. time (UTC)
Max El. Az.
Max El.
End time (UTC)
End Az.
4 mins2024-12-22 11:50:10.272Z120.014° SE2024-12-22 11:52:10.272Z92.258° ESE14.442°2024-12-22 11:54:10.272Z66.015° ENE
8 mins2024-12-22 13:28:10.272Z219.56° SW2024-12-22 13:32:10.272Z314.467° NW37.419°2024-12-22 13:36:10.272Z8.684° NNE
6 mins2024-12-22 22:06:10.272Z20.101° NNE2024-12-22 22:09:10.272Z68.445° E20.535°2024-12-22 22:12:10.272Z109.626° ESE
7 mins2024-12-22 23:46:10.272Z315.526° NNW2024-12-22 23:49:10.272Z256.776° W31.419°2024-12-22 23:53:10.272Z192.544° SSW
|